When you browse on this site, cookies collect data to enhance your experience and personalize the content and advertising you see.
Visit our Privacy Policy to learn more. By continuing to use the site, you agree to this use of cookies and data.
  • In United Kingdom
  • List of Countries
  • For 7 days
  • Water Temperature
  • Weather Map
  • Weather Widgets
  • user-avatar
    Login

    Hourly Weather Yoro

    Today, 26 August, Monday

    Time Temperature Precipitation Wind Pressure Humidity
    00:00 +22°C° 0 mm 1 mps 699 mmHg 95%
    01:00 +22°C° 0 mm 1 mps 698 mmHg 95%
    02:00 +22°C° 0 mm 1 mps 698 mmHg 95%
    03:00 +21°C° 0 mm 1 mps 698 mmHg 95%
    04:00 +21°C° 0 mm 1 mps 698 mmHg 95%
    05:00 +21°C° 0 mm 1 mps 698 mmHg 96%
    06:00 +21°C° 0 mm 1 mps 698 mmHg 96%
    07:00 +24°C° 0 mm 1 mps 699 mmHg 86%
    08:00 +26°C° 0 mm 1 mps 699 mmHg 76%
    09:00 +29°C° 0 mm 1 mps 700 mmHg 67%
    10:00 +30°C° 0 mm 1 mps 700 mmHg 58%
    11:00 +32°C° 0 mm 1 mps 700 mmHg 50%
    12:00 +34°C° 0 mm 1 mps 699 mmHg 41%
    13:00 +34°C° 0 mm 1 mps 699 mmHg 41%
    14:00 +34°C° 0 mm 1 mps 698 mmHg 41%
    15:00 +34°C° 0 mm 1 mps 698 mmHg 41%
    16:00 +31°C° 0.3 mm 1 mps 698 mmHg 54%
    17:00 +28°C° 0.3 mm 1 mps 697 mmHg 68%
    18:00 +26°C° 0.3 mm 1 mps 697 mmHg 82%
    19:00 +25°C° 0.1 mm 1 mps 698 mmHg 83%
    20:00 +24°C° 0.1 mm 1 mps 699 mmHg 85%
    21:00 +23°C° 0.1 mm 1 mps 699 mmHg 87%
    22:00 +23°C° 0 mm 1 mps 699 mmHg 88%
    23:00 +22°C° 0 mm 1 mps 699 mmHg 90%

    Tomorrow, 27 August, Tuesday

    Time Temperature Precipitation Wind Pressure Humidity
    00:00 +22°C° 0 mm 1 mps 698 mmHg 91%
    01:00 +21°C° 0 mm 1 mps 698 mmHg 92%
    02:00 +21°C° 0 mm 1 mps 698 mmHg 93%
    03:00 +21°C° 0 mm 1 mps 698 mmHg 93%
    04:00 +21°C° 0 mm 1 mps 698 mmHg 94%
    05:00 +21°C° 0 mm 1 mps 698 mmHg 95%
    06:00 +21°C° 0 mm 1 mps 698 mmHg 95%
    07:00 +23°C° 0 mm 1 mps 699 mmHg 84%
    08:00 +26°C° 0 mm 1 mps 699 mmHg 72%
    09:00 +29°C° 0 mm 1 mps 700 mmHg 60%
    10:00 +30°C° 0 mm 1 mps 700 mmHg 56%
    11:00 +31°C° 0 mm 1 mps 700 mmHg 51%
    12:00 +33°C° 0 mm 1 mps 700 mmHg 46%
    13:00 +32°C° 0.1 mm 1 mps 699 mmHg 48%
    14:00 +32°C° 0.1 mm 1 mps 699 mmHg 51%
    15:00 +32°C° 0.1 mm 2 mps 698 mmHg 53%
    16:00 +30°C° 0.1 mm 1 mps 698 mmHg 63%
    17:00 +28°C° 0.1 mm 1 mps 698 mmHg 72%
    18:00 +26°C° 0.1 mm 1 mps 698 mmHg 81%
    19:00 +25°C° 0 mm 1 mps 698 mmHg 84%
    20:00 +24°C° 0 mm 1 mps 699 mmHg 87%
    21:00 +23°C° 0 mm 1 mps 699 mmHg 90%
    22:00 +23°C° 0 mm 1 mps 699 mmHg 90%
    23:00 +22°C° 0 mm 1 mps 699 mmHg 91%

    Day after tomorrow, 28 August, Wednesday

    Time Temperature Precipitation Wind Pressure Humidity
    00:00 +22°C° 0 mm 1 mps 699 mmHg 91%
    01:00 +22°C° 0 mm 1 mps 699 mmHg 92%
    02:00 +21°C° 0 mm 1 mps 699 mmHg 93%
    03:00 +21°C° 0 mm 1 mps 699 mmHg 94%
    04:00 +21°C° 0 mm 1 mps 699 mmHg 94%
    05:00 +21°C° 0 mm 1 mps 699 mmHg 94%
    06:00 +21°C° 0 mm 1 mps 699 mmHg 95%
    07:00 +23°C° 0 mm 1 mps 700 mmHg 83%
    08:00 +26°C° 0 mm 1 mps 701 mmHg 71%
    09:00 +29°C° 0 mm 1 mps 701 mmHg 59%
    10:00 +30°C° 0 mm 1 mps 701 mmHg 52%
    11:00 +31°C° 0 mm 1 mps 701 mmHg 45%
    12:00 +34°C° 0 mm 2 mps 701 mmHg 39%
    13:00 +32°C° 0 mm 2 mps 700 mmHg 40%
    14:00 +32°C° 0 mm 2 mps 700 mmHg 42%
    15:00 +32°C° 0 mm 2 mps 699 mmHg 43%
    16:00 +30°C° 0.1 mm 2 mps 699 mmHg 53%
    17:00 +27°C° 0.1 mm 1 mps 699 mmHg 62%
    18:00 +25°C° 0.1 mm 1 mps 699 mmHg 72%
    19:00 +24°C° 0 mm 1 mps 699 mmHg 76%
    20:00 +23°C° 0 mm 1 mps 699 mmHg 79%
    21:00 +20°C° 0 mm 0 mps 700 mmHg 83%
    22:00 +20°C° 0 mm 0 mps 700 mmHg 85%
    23:00 +19°C° 0 mm 0 mps 700 mmHg 87%

    29 August, Thursday

    Time Temperature Precipitation Wind Pressure Humidity
    00:00 +19°C° 0 mm 0 mps 700 mmHg 88%
    01:00 +19°C° 0 mm 0 mps 699 mmHg 90%
    02:00 +18°C° 0 mm 0 mps 699 mmHg 91%
    03:00 +18°C° 0 mm 0 mps 699 mmHg 92%
    04:00 +18°C° 0 mm 0 mps 699 mmHg 92%
    05:00 +18°C° 0 mm 0 mps 699 mmHg 92%
    06:00 +18°C° 0 mm 0 mps 699 mmHg 91%
    07:00 +21°C° 0 mm 0 mps 700 mmHg 78%
    08:00 +26°C° 0 mm 1 mps 700 mmHg 65%
    09:00 +29°C° 0 mm 1 mps 701 mmHg 52%
    10:00 +30°C° 0 mm 1 mps 701 mmHg 47%
    11:00 +31°C° 0 mm 2 mps 701 mmHg 42%
    12:00 +32°C° 0 mm 2 mps 700 mmHg 37%
    13:00 +32°C° 0 mm 2 mps 700 mmHg 39%
    14:00 +32°C° 0 mm 2 mps 699 mmHg 41%
    15:00 +33°C° 0 mm 3 mps 699 mmHg 44%
    16:00 +29°C° 0.2 mm 2 mps 699 mmHg 57%
    17:00 +27°C° 0.2 mm 2 mps 699 mmHg 71%
    18:00 +24°C° 0.2 mm 1 mps 699 mmHg 85%
    19:00 +24°C° 0.1 mm 1 mps 699 mmHg 89%
    20:00 +23°C° 0.1 mm 1 mps 700 mmHg 92%
    21:00 +22°C° 0.1 mm 1 mps 700 mmHg 96%
    22:00 +22°C° 0 mm 1 mps 700 mmHg 97%
    23:00 +21°C° 0 mm 1 mps 700 mmHg 97%

    30 August, Friday

    Time Temperature Precipitation Wind Pressure Humidity
    00:00 +19°C° 0 mm 0 mps 699 mmHg 97%
    01:00 +19°C° 0 mm 0 mps 699 mmHg 96%
    02:00 +19°C° 0 mm 0 mps 699 mmHg 96%
    03:00 +18°C° 0 mm 0 mps 698 mmHg 95%
    04:00 +18°C° 0 mm 0 mps 698 mmHg 94%
    05:00 +18°C° 0 mm 0 mps 698 mmHg 93%
    06:00 +18°C° 0 mm 0 mps 699 mmHg 92%
    07:00 +21°C° 0 mm 0 mps 699 mmHg 80%
    08:00 +26°C° 0 mm 1 mps 700 mmHg 68%
    09:00 +29°C° 0 mm 1 mps 701 mmHg 55%
    10:00 +30°C° 0 mm 1 mps 700 mmHg 51%
    11:00 +31°C° 0 mm 1 mps 700 mmHg 47%
    12:00 +32°C° 0 mm 1 mps 700 mmHg 42%
    13:00 +32°C° 0.1 mm 2 mps 699 mmHg 46%
    14:00 +31°C° 0.1 mm 2 mps 699 mmHg 50%
    15:00 +31°C° 0.1 mm 2 mps 698 mmHg 54%
    16:00 +29°C° 0.6 mm 2 mps 698 mmHg 67%
    17:00 +26°C° 0.6 mm 1 mps 698 mmHg 79%
    18:00 +24°C° 0.6 mm 1 mps 698 mmHg 92%
    19:00 +24°C° 0.6 mm 1 mps 699 mmHg 92%
    20:00 +23°C° 0.6 mm 1 mps 699 mmHg 93%
    21:00 +21°C° 0.6 mm 0 mps 700 mmHg 93%
    22:00 +20°C° 0.1 mm 0 mps 700 mmHg 93%
    23:00 +20°C° 0.1 mm 0 mps 700 mmHg 93%

    31 August, Saturday

    Time Temperature Precipitation Wind Pressure Humidity
    00:00 +20°C° 0.1 mm 0 mps 699 mmHg 93%
    01:00 +20°C° 0 mm 0 mps 699 mmHg 93%
    02:00 +19°C° 0 mm 0 mps 699 mmHg 93%
    03:00 +21°C° 0 mm 1 mps 698 mmHg 94%
    04:00 +21°C° 0 mm 1 mps 699 mmHg 94%
    05:00 +21°C° 0 mm 1 mps 699 mmHg 94%
    06:00 +21°C° 0 mm 1 mps 699 mmHg 95%
    07:00 +24°C° 0 mm 1 mps 700 mmHg 84%
    08:00 +25°C° 0 mm 0 mps 700 mmHg 74%
    09:00 +27°C° 0 mm 0 mps 701 mmHg 64%
    10:00 +28°C° 0.2 mm 0 mps 700 mmHg 61%
    11:00 +31°C° 0.2 mm 1 mps 700 mmHg 58%
    12:00 +32°C° 0.2 mm 1 mps 700 mmHg 56%
    13:00 +30°C° 1.6 mm 1 mps 699 mmHg 65%
    14:00 +29°C° 1.6 mm 1 mps 698 mmHg 73%
    15:00 +28°C° 1.6 mm 2 mps 697 mmHg 82%
    16:00 +27°C° 1.5 mm 1 mps 697 mmHg 85%
    17:00 +25°C° 1.5 mm 1 mps 698 mmHg 89%
    18:00 +24°C° 1.5 mm 1 mps 698 mmHg 92%
    19:00 +24°C° 0.5 mm 1 mps 698 mmHg 92%
    20:00 +23°C° 0.5 mm 1 mps 699 mmHg 93%
    21:00 +21°C° 0.5 mm 0 mps 699 mmHg 93%
    22:00 +21°C° 0.3 mm 0 mps 699 mmHg 94%
    23:00 +20°C° 0.3 mm 0 mps 699 mmHg 94%
    Show more